DECAYED
Showing default

QUANTUTONG 1, 43158 (Decayed)

Orbit data source: Space-Track

QUANTUTONG 1, 43158 was a payload satellite owned by QuanTuTong (CN) in SSO that was launched on Fri, 19 Jan 2018 UTC via a CHANG ZHENG 11 launch vehicle from the Jiuquan Satellite Launch Center, China (JSC). Payloads include a variety of satellites, spacecraft, and rockets equipped with specific instruments for various scientific and technological missions. These include communications satellites like Starlink; space stations such as the ISS; scientific satellites like the Hubble; Earth observation satellites from companies like Planet Labs, Umbra, and HawkEye 360; GPS; miniature CubeSats for education and research; and military/defense satellites.

Loading next visibility...
QUANTUTONG 1 details
Identifier
43158, 2018-008D
Orbit
Decayed
Last TLE update2 months ago
Origin
Flag of CNQuanTuTong (CN / PRC)
ManufacturerChangsha Tianyi
MissionDecayed Commercial Navigation
Bus & MotorCUBESAT 6U, Unknown motor
Mass8 kg wet, 8 kg dry
Launch date (UTC)
2018-01-19 (7 years ago)
Launch vehicle
CHANG ZHENG 11
Launch site
Jiuquan Satellite Launch Center, China (JSC)
Object type
Payload
Rocket body
Debris
Shape & HBRBox, 0.3 m
Radar Cross Section0.080 m², Medium (>0.1 m² and < 1m²)

Expand to show TLE details & history

TLE from 2 months ago
0 QUANTUTONG 1
1 43158U 18008D   24289.57081905  .01911305  30434-2  22393-2 0  9995
2 43158  97.2486 341.2486 0006509 265.8690  94.1850 16.09457699373267
Epoch: 2024-10-15T13:41Z
Definitive object data (Epoch: 2024-10-15T13:41:58.765Z)
Latitude-0.00003°
Longitude111.17205°
Altitude251.864 km
Speed7.756 km/s
True Right ascension22h 44m 59s
True Declination0° 00' 00"
Sunlit
Object was in full shadow at TLE epoch
Visualization TLE readout
Latitude-80.19327°
Longitude-20.56726°
Altitude135,734,656.852 km
Speed0.054 km/s
Apparent Right ascension13h 58m 03s
Apparent Declination-80° 11' 43"
Sunlit
Object is in daylight
Visualization observer readout
Local Sidereal Time11:56:30
Azimuth174.214° S
Elevation-31.307°
Doppler factor1
Orbital elements
Apogee altitude249.483 km
Perigee altitude240.861 km
Semi-major axis6,623.309 km
Eccentricity0.0006509
Inclination97.2486°
RAAN341.2486°
Arg. of periapsis265.869°
True anomaly94.25938°
Mean anomaly94.185°
Eccentric anomaly94.22219°
Mean motion4.02653 °/min
BSTAR0.0022393
Orbital period89.41 mins
Loading maneuver chart data...
Loading historical data...
Loading historical data...
Loading historical data...
Loading historical data...
Loading historical data...
Loading historical data...
Loading historical data...

QUANTUTONG 1 Visibility forecast

Observer location: undefined°, undefined

Span
Click to sort rows by Start time (UTC) header in descending order
Start Az.
Max El. time (UTC)
Max El. Az.
Max El.
End time (UTC)
End Az.
4 mins2024-12-26 12:38:58.718Z75.881° E2024-12-26 12:40:58.718Z13.804° NNE29.499°2024-12-26 12:42:58.718Z316.421° NNW
4 mins2024-12-26 13:05:58.718Z84.256° E2024-12-26 13:07:58.718Z24.781° NE31.063°2024-12-26 13:09:58.718Z330.049° NNW
4 mins2024-12-26 13:19:58.718Z94.463° ESE2024-12-26 13:21:58.718Z38.276° NE32.225°2024-12-26 13:23:58.718Z342.348° N
4 mins2024-12-26 13:34:58.718Z94.92° ESE2024-12-26 13:36:58.718Z38.587° NE33.19°2024-12-26 13:38:58.718Z345.265° N
4 mins2024-12-26 13:50:58.718Z87.488° E2024-12-26 13:51:58.718Z59.522° ENE34.119°2024-12-26 13:54:58.718Z342.041° N
5 mins2024-12-26 14:06:58.718Z98.408° ESE2024-12-26 14:08:58.718Z42.504° NE35.303°2024-12-26 14:11:58.718Z336.662° NNW
5 mins2024-12-26 14:23:58.718Z106.273° ESE2024-12-26 14:25:58.718Z52.723° ENE36.717°2024-12-26 14:28:58.718Z346.068° N
6 mins2024-12-26 14:41:58.718Z114.836° SE2024-12-26 14:43:58.718Z64.643° ENE37.993°2024-12-26 14:47:58.718Z342.636° N
6 mins2024-12-26 15:00:58.718Z127.176° SE2024-12-26 15:03:58.718Z54.665° ENE39.042°2024-12-26 15:06:58.718Z355.431° N
8 mins2024-12-26 15:20:58.718Z144.026° SSE2024-12-26 15:24:58.718Z62.577° ENE40.39°2024-12-26 15:28:58.718Z352.748° N
9 mins2024-12-26 15:43:58.718Z148.501° SSE2024-12-26 15:47:58.718Z72.557° E41.648°2024-12-26 15:52:58.718Z353.486° N
11 mins2024-12-26 16:08:58.718Z158.558° S2024-12-26 16:13:58.718Z76.769° E42.767°2024-12-26 16:19:58.718Z355.617° N
13 mins2024-12-26 16:37:58.718Z167.075° S2024-12-26 16:43:58.718Z87.725° E43.779°2024-12-26 16:50:58.718Z0.768° NNE
17 mins2024-12-26 17:13:58.718Z175.021° S2024-12-26 17:20:58.718Z112.755° SE44.543°2024-12-26 17:30:58.718Z4.783° NNE
34 mins2024-12-26 18:02:58.718Z187.67° SSW2024-12-26 18:16:58.718Z234.536° WSW44.988°2024-12-26 18:36:58.718Z12.572° NNE
34 mins2024-12-26 20:10:58.718Z24.797° NE2024-12-26 20:29:58.718Z303.968° NW42.279°2024-12-26 20:44:58.718Z224.12° SW
16 mins2024-12-26 21:17:58.718Z29.91° NE2024-12-26 21:25:58.718Z310.796° NW40.022°2024-12-26 21:33:58.718Z239.041° WSW
12 mins2024-12-26 21:56:58.718Z38.638° NE2024-12-26 22:02:58.718Z323.231° NNW38.559°2024-12-26 22:08:58.718Z251.782° W
10 mins2024-12-26 22:27:58.718Z46.138° ENE2024-12-26 22:32:58.718Z331.645° NNW37.49°2024-12-26 22:37:58.718Z261.438° W
8 mins2024-12-26 22:54:58.718Z47.38° ENE2024-12-26 22:58:58.718Z335.946° NNW36.69°2024-12-26 23:02:58.718Z272.293° WNW
7 mins2024-12-26 23:18:58.718Z46.309° ENE2024-12-26 23:21:58.718Z344.158° N36.303°2024-12-26 23:25:58.718Z275.745° WNW
6 mins2024-12-26 23:39:58.718Z57.086° ENE2024-12-26 23:42:58.718Z351.113° N36.148°2024-12-26 23:45:58.718Z291.597° WNW
6 mins2024-12-26 23:59:58.718Z57.387° ENE2024-12-27 00:01:58.718Z9.702° NNE36.265°2024-12-27 00:05:58.718Z287.009° WNW
6 mins2024-12-27 00:17:58.718Z69.65° E2024-12-27 00:19:58.718Z21.641° NNE36.302°2024-12-27 00:23:58.718Z292.16° WNW
5 mins2024-12-27 00:34:58.718Z80.55° E2024-12-27 00:36:58.718Z32.496° NE36.371°2024-12-27 00:39:58.718Z312.356° NW
5 mins2024-12-27 00:51:58.718Z73.921° E2024-12-27 00:53:58.718Z13.15° NNE37.16°2024-12-27 00:56:58.718Z302.93° NW
4 mins2024-12-27 01:07:58.718Z69.092° E2024-12-27 01:08:58.718Z36.464° NE37.606°2024-12-27 01:11:58.718Z313.109° NW
4 mins2024-12-27 01:22:58.718Z71.531° E2024-12-27 01:23:58.718Z35.583° NE38.274°2024-12-27 01:26:58.718Z312.691° NW
4 mins2024-12-27 01:36:58.718Z85.477° E2024-12-27 01:37:58.718Z51.497° ENE38.415°2024-12-27 01:40:58.718Z318.883° NNW
4 mins2024-12-27 01:50:58.718Z84.541° E2024-12-27 01:51:58.718Z45.072° ENE39.349°2024-12-27 01:54:58.718Z316.63° NNW
4 mins2024-12-27 02:03:58.718Z98.407° ESE2024-12-27 02:04:58.718Z62.98° ENE39.337°2024-12-27 02:07:58.718Z322.712° NNW
|